Location: Olmeneta
(45.2333°N, 10.0167°E)
Time: 08:10:34
(UTC+00:00)

Cosmos 1844 Rocket - Pass Details

Date: 03 March 2021
Orbit: 826 x 843 km, 71.0° (Epoch: 10 April)

Event Time Altitude Azimuth Distance (km) Brightness Sun altitude
Rises 18:22:40 0° 335° (NNW) 3,375 6.3 -13.6°
Reaches altitude 10° 18:25:07 10° 338° (NNW) 2,437 5.5 -14.0°
Maximum altitude 18:30:42 69° 62° (ENE) 883 2.6 -15.0°
Enters shadow 18:36:07 11° 146° (SE) 2,379 4.7 -15.9°
